This is the latest recevied weather packets stored in our database for station/object EA5DFV. If no packets are shown the sender has not sent any weather packets the latest 10 day(s).
| Time | Temp. | Humidity | Pressure | Rain* | Wind** | Luminosity | Snow |
|---|---|---|---|---|---|---|---|
| 1777447715 | 17.78° C | 80% | 1010.6 hPa | 0 mm | - | 139 W/m² | - |
| 1777447409 | 17.78° C | 79% | 1010.6 hPa | 0 mm | - | 149 W/m² | - |
| 1777447102 | 17.78° C | 79% | 1010.5 hPa | 0 mm | - | 81 W/m² | - |
| 1777446816 | 17.78° C | 79% | 1010.6 hPa | 0 mm | - | 67 W/m² | - |
| 1777446506 | 17.78° C | 79% | 1010.5 hPa | 0 mm | - | 70 W/m² | - |
| 1777446201 | 17.78° C | 78% | 1010.4 hPa | 0 mm | - | 39 W/m² | - |
| 1777445914 | 17.78° C | 78% | 1010.3 hPa | 0 mm | - | 76 W/m² | - |
| 1777445608 | 17.78° C | 78% | 1010.3 hPa | 0 mm | - | 93 W/m² | - |
| 1777445302 | 17.22° C | 78% | 1010.2 hPa | 0 mm | - | 123 W/m² | - |
| 1777445012 | 17.22° C | 78% | 1010.1 hPa | 0 mm | - | 123 W/m² | - |
| 1777444703 | 17.22° C | 78% | 1010.1 hPa | 0 mm | - | 114 W/m² | - |
| 1777444413 | 17.22° C | 78% | 1010 hPa | 0 mm | - | 86 W/m² | - |
| 1777444108 | 17.22° C | 78% | 1009.9 hPa | 0 mm | - | 72 W/m² | - |
| 1777443805 | 17.22° C | 78% | 1009.9 hPa | 0 mm | - | 69 W/m² | - |
| 1777443515 | 17.22° C | 79% | 1009.9 hPa | 0 mm | - | 67 W/m² | - |
| 1777443208 | 16.67° C | 79% | 1009.9 hPa | 0 mm | - | 74 W/m² | - |
| 1777442615 | 16.67° C | 79% | 1009.7 hPa | 0 mm | - | 70 W/m² | - |
| 1777442305 | 16.67° C | 80% | 1009.7 hPa | 0 mm | - | 56 W/m² | - |
| 1777442019 | 16.67° C | 80% | 1009.8 hPa | 0 mm | - | 44 W/m² | - |
| 1777441709 | 16.11° C | 81% | 1009.8 hPa | 0 mm | - | 35 W/m² | - |
| 1777441404 | 16.11° C | 80% | 1009.8 hPa | 0 mm | - | 28 W/m² | - |
| 1777441114 | 16.11° C | 81% | 1009.7 hPa | 0 mm | - | 23 W/m² | - |
| 1777440808 | 16.11° C | 81% | 1009.7 hPa | 0 mm | - | 16 W/m² | - |
| 1777440504 | 16.11° C | 81% | 1009.6 hPa | 0 mm | - | 12 W/m² | - |
| 1777440215 | 16.11° C | 81% | 1009.6 hPa | 0 mm | - | 9 W/m² | - |
* Rain latest hour (hover to see other rain measurements)
** Current wind speed in m/s (hover to see current wind gust speed)